www.pogodaiklimat.ru

Погода и климат >> Архив погоды >> Индонезия >> Nangapinoh


ПОГОДА в Nangapinoh

  • Прогноз погоды в Nangapinoh
  • Монитор погоды в Nangapinoh
  • Климат города

АРХИВ ПОГОДЫ в Nangapinoh

Время (UTC), дата Ветер
(напр.,м/с)
 
Видим.   Явления Облачность Т
(С)
Тd
(С)
f
(%)
Тe
(С)
Тes
(С)
Комфортность P
(гПа)
Po
(гПа)
Тmin
(С)
Tmax
(С)
R
(мм)
R24
(мм)
S
(см)
09 12.11 ЮЗ 5 7000 м осадки на расстоянии 9/6 300 м
[Cb cap As op Ci fib]
+27.6 +23.2 77 +37 +38 очень
душно
1007.0 1002.2
12 12.11 СЗ 2 6000 м 8/5 300 м
[Cb cap As op Ci fib]
+25.6 +23.8 90 +35 +35 очень
душно
1009.0 1004.2 +32.8
15 12.11 штиль 0 4000 м мгла 9/5 300 м
[Cb calv As op Ci fib]
+25.0 +24.0 94 +34 +34 очень
душно
1010.5 1005.7
00 13.11 штиль 0 5000 м мгла 8/4 300 м
[Cu hum Ac As Ci fib]
+25.2 +24.0 93 +35 +36 очень
душно
1010.6 1005.8 +24.4
03 13.11 ЮВ 1 10 км 9/6 330 м
[Cu hum Ac As Ci fib]
+29.8 +23.7 70 +41 +46 опасность
перегрева
1009.8 1005.0
06 13.11 ЮЗ 2 10 км 8/5 330 м
[Cu med, cong As trans Ci fib]
+32.8 +22.5 55 +42 +48 опасность
перегрева
1006.5 1001.7
09 13.11 З 3 10 км осадки на расстоянии 9/6 300 м
[Cb cap As op Ci fib]
+29.0 +24.1 75 +40 +41 очень
душно
1005.7 1000.9
12 13.11 штиль 0 3000 м слабый дождь 10/6 300 м
[Cb cap As op]
+26.2 +23.8 87 +36 +36 очень
душно
1007.9 1003.1 +33.4 0.0
15 13.11 С 1 1000 м дождь 10/8 300 м
[Cb cap As op]
+23.7 +23.5 99 +32 +32 очень
душно
1010.7 1005.9 33
00 14.11 В 2 2000 м дымка 10/8 300 м
[Cu Sc As op]
+23.6 +23.4 99 +32 +32 очень
душно
1011.0 1006.2 +23.4 10
03 14.11 ЮВ 2 7000 м 9/6 300 м
[Cu med, cong Ac As Ci fib]
+28.4 +23.4 74 +38 +43 очень
душно
1011.3 1006.5
06 14.11 В 2 10 км в посл. час дождь 8/6 300 м
[Cb cap As op Ci fib]
+31.0 +25.2 71 +45 +50 опасность
перегрева
1008.2 1003.4 0.4
09 14.11 штиль 0 10 км 8/6 300 м
[Cb cap Ac As Ci fib]
+32.8 +24.8 63 +46 +47 опасность
перегрева
1006.5 1001.7
12 14.11 Ю 2 7000 м зарница 9/6 300 м
[Cb cap As op Ci fib]
+27.2 +24.4 85 +38 +38 очень
душно
1009.6 1004.8 +33.2
15 14.11 штиль 0 1000 м в посл. час дождь {гроза} 10/6 300 м
[Cb cap As op]
+24.7 +23.5 93 +33 +33 очень
душно
1012.0 1007.2 2
00 15.11 штиль 0 2000 м мгла 10/8 300 м
[Cu Sc As op]
+24.3 +23.4 95 +33 +33 очень
душно
1012.0 1007.2 +23.7 2
03 15.11 Ю 1 8000 м 9/8 300 м
[Cu med, cong As op]
+28.6 +24.1 77 +40 +42 очень
душно
1012.3 1007.5
06 15.11 ЮЗ 1 10 км 8/6 300 м
[Cb calv As op Ci fib]
+31.8 +24.4 65 +44 +50 опасность
перегрева
1009.2 1004.4
09 15.11 Ю 2 10 км 8/6 300 м
[Cb cap As op Ci fib]
+33.5 +23.2 55 +44 +45 опасность
перегрева
1007.4 1002.6
12 15.11 С 1 5000 м зарница 9/6 300 м
[Cb cap As op Ci fib]
+29.8 +25.6 78 +44 +44 опасность
перегрева
1009.8 1005.0 +34.0
15 15.11 штиль 0 3000 м мгла 9/6
[Cb cap As op Ci fib]
+26.9 +24.7 88 +38 +38 очень
душно
1011.8 1007.0
00 16.11 штиль 0 2000 м мгла 9/6 300 м
[Cu Sc As op]
+25.3 +24.1 93 +35 +35 очень
душно
1012.4 1007.6 +24.4
03 16.11 В 1 10 км 8/6 300 м
[Cb calv As op Ci fib]
+30.6 +24.3 69 +43 +48 опасность
перегрева
1011.3 1006.5
06 16.11 З 3 6000 м слабый ливневой дождь, в посл. час гроза 9/6 300 м
[Cb cap As op Ci fib]
+26.4 +24.4 89 +37 +41 очень
душно
1008.3 1003.5 33
09 16.11 В 2 7000 м слабый дождь {гроза} 10/6 300 м
[Cb cap As op]
+27.0 +24.7 87 +38 +39 очень
душно
1008.2 1003.2 0.2
12 16.11 штиль 0 6000 м {гроза, дождь} 9/5 300 м
[Cb cap As op Ci fib]
+25.5 +24.7 95 +36 +36 очень
душно
1010.2 1005.4 +32.2 1
15 16.11 штиль 0 4000 м дымка 10/6
[Cb calv As op]
+24.9 +24.1 95 +34 +34 очень
душно
1012.0 1007.2
00 17.11 штиль 0 2000 м слабый дождь 10/6 300 м
[Cb cap As op]
+23.8 +23.3 97 +32 +32 очень
душно
1013.9 1009.1 +23.6 67
03 17.11 штиль 0 2000 м слабый дождь 9/6 300 м
[Cb cap As op]
+24.0 +23.2 95 +32 +36 очень
душно
1013.2 1008.4 4
06 17.11 штиль 0 10 км {дождь} 8/6 300 м
[Cu med, cong Ac As Ci fib]
+27.8 +23.7 78 +38 +45 очень
душно
1010.5 1005.7 0.0
09 17.11 штиль 0 10 км {дождь} 9/6 300 м
[Cb cap Ac As Ci fib]
+29.6 +23.8 71 +41 +42 опасность
перегрева
1008.1 1003.3 0.0
12 17.11 штиль 0 5000 м осадки на расстоянии {дождь} 10/6 300 м
[Cb cap As op]
+27.7 +25.7 89 +41 +41 опасность
перегрева
1010.9 1006.2 +29.8 0.0
15 17.11 штиль 0 2000 м в посл. час дождь 10/6 300 м
[Cb cap As op]
+25.8 +24.6 93 +36 +36 очень
душно
1012.6 1007.8 0.0
00 18.11 штиль 0 4000 м мгла 9/6 330 м
[Cu med, cong Ac As Ci fib]
+25.4 +24.3 94 +35 +36 очень
душно
1013.0 1008.2 +23.8 4
03 18.11 СЗ 2 10 км 8/5 300 м
[Cu med, cong Ac As Ci fib]
+30.6 +24.6 70 +43 +49 опасность
перегрева
1012.5 1007.6
06 18.11 СВ 2 10 км 8/6 300 м
[Cb calv Ac As Ci fib]
+32.4 +24.1 62 +45 +50 опасность
перегрева
1010.0 1005.2
09 18.11 штиль 0 10 км 8/5 300 м
[Cb calv Ac As Ci fib]
+33.0 +23.4 57 +44 +45 опасность
перегрева
1008.3 1003.5
12 18.11 штиль 0 6000 м 9/6 300 м
[Cb cap As op]
+29.9 +24.6 73 +42 +42 опасность
перегрева
1010.9 1006.1 +34.1
15 18.11 штиль 0 2000 м мгла 9/6 300 м
[Cb cap As op Ci fib]
+27.5 +25.7 90 +41 +41 опасность
перегрева
1012.4 1007.6
00 19.11 В 2 2000 м мгла 10/8 300 м
[Cu Sc As op]
+25.6 +24.1 91 +35 +35 очень
душно
1013.1 1008.3 +25.0 0.3
03 19.11 З 1 6000 м 9/6
[Cb calv As op]
+28.3 +23.8 77 +39 +42 очень
душно
1014.0 1009.2
06 19.11 ЮЗ 2 10 км 9/6 300 м
[Cb cap As op Ci fib]
+31.4 +23.4 63 +42 +47 опасность
перегрева
1010.7 1005.4

 

Местоположение метеостанции Nangapinoh (Индонезия): широта -0.35 долгота 111.78 высота над уровнем моря 37 м.

В архиве по умолчанию представлена погода в Nangapinoh за последнюю неделю. Архивные данные за месяц целиком и за предыдущие месяцы, начиная с января 2011 года, Вы можете получить, выбрав интересующий диапазон дат из раскрывающегося списка и нажав кнопку "Ввод!".


*Определитесь, кто Вы:
робот инопланетянин человек

Внимание! Время в таблицах - всемирное. Для получения местного времени необходимо прибавить поправку, которая в Nangapinoh равна 7 ч.

Смотрите также архив погоды в соседних городах и на ближайших метеорологических станциях:

Погода в Sintang (Индонезия) (59 км)
Погода в Putussibau (Индонезия) (185 км)
Погода в Palangkaraya (Индонезия) (257 км)
Погода в Kuching (Малайзия) (260 км)
Погода в Pangkalan Bun (Индонезия) (262 км)
Погода в Ketapang (Индонезия) (262 км)
Погода в Pontianak (Индонезия) (266 км)
Погода в Sibu (Малайзия) (298 км)
Погода в Muaratewe (Индонезия) (353 км)
Погода в Paloh (Индонезия) (363 км)

Пояснения к столбцам:

Ветер - указаны скорость ветра в м/с - средняя за 10 мин, порывы в срок и между сроками (в фигурных скобках) и направление, откуда дует ветер: С - северный, СВ - северо-восточный, В - восточный, ЮВ - юго-восточный, Ю - южный, ЮЗ - юго-западный, З - западный, СЗ - северо-западный.
Видимость - горизонтальная дальность видимости в метрах или километрах. При видимости от 1 до 10 км при отсутствии осадков обычно наблюдается дымка, при ухудшении видимости до 1 км и менее - туман. В сухую погоду видимость может ухудшаться дымом, пылью или мглою.
Явления - указаны атмосферные явления, наблюдавшиеся в срок или в последний час перед сроком; фигурными скобками обозначены явления, наблюдавшиеся между сроками (за 1-3 часа до срока); квадратными скобками обозначены град или гололедные отложения с указанием их диаметра в мм.
Облачность - указаны через наклонную черту общая и нижняя облачность в баллах и высота нижней границы облаков в метрах; квадратными скобками обозначены формы облаков: Ci - перистые, Cs - перисто-слоистые, Cc - перисто-кучевые, Ac - высококучевые, As - высокослоистые, Sc - слоисто-кучевые, Ns - слоисто-дождевые, Cu - кучевые, Cb - кучево-дождевые. Подробнее классификацию облаков см. в Атласе облаков (PDF).
T - Температура воздуха - температура, измеренная на высоте 2 м над землей.
Td - Температура точки росы - температура, при понижении до которой содержащийся в воздухе водяной пар достигнет насыщения.
f - Относительная влажность воздуха - влажноcть воздуха, измеренная на высоте 2 м над землей.
Te - Эффективная температура - температура, которую ощущает одетый по сезону человек в тени. Характеристика душности погоды. При расчете учитывается влияние влажности воздуха и скорости ветра на теплоощущения человека.
Tes - Эффективная температура на солнце - температура, которую ощущает человек, с поправкой на солнечный нагрев. Характеристика знойности погоды. Зависит от высоты солнца над горизонтом, облачности и скорости ветра. Ночью, в пасмурную погоду, а также при ветре 12 м/с и более поправка равна нулю.
P - Атмосферное давление - приведенное к уровню моря атмосферное давление.
Po - Атмосферное давление - измеренное на уровне метеостанции атмосферное давление.
Tmin - Минимальная температура - минимум температуры воздуха на высоте 2 м над землей.
Tmax - Максимальная температура - максимум температуры воздуха на высоте 2 м над землей.
R - Количество осадков - Количество выпавших осадков за период времени, мм. При наведении курсора мыши на число - период времени, за который выпало указанное количество осадков.
R24 - Количество осадков - Количество выпавших осадков за 24 часа, мм.
S - Снежный покров - Высота снежного покрова, см. При наведении курсора мыши на число - состояние снежного покрова и степень покрытия местности в баллах.